Home > Weather > Newark > Past weeks

Flag for USA Past Weather in Newark, New Jersey, USA — Yesterday and Last 2 Weeks

Now
84 °F

Broken clouds.


Feels Like: 89 °F
Forecast: 72 / 86 °F
Wind: 5 mph from North

Location: Newark International Airport

Current Time: Jul 30, 2016 at 1:03:38 PM

Latest Report: Jul 30, 2016 at 11:51 AM


Visibility: 7 mi

Pressure: 29.99 "Hg

Humidity: 65%

Dew Point: 71 °F

Location of NewarkLocation

Past Weather in Newark — Graph

°F

Newark Temperature Yesterday

Maximum temperature yesterday: 86 °F (at 3:51 PM)
Minimum temperature yesterday: 70 °F (at 7:51 AM)
Average temperature yesterday: 77 °F

High & Low Weather Summary for the Past Weeks

 TemperatureHumidityPressure
High97 °F (Jul 23, 2:51 PM)100% (Jul 29, 7:51 AM)30.23 "Hg (Jul 29, 7:51 AM)
Low66 °F (Jul 20, 5:51 AM)24% (Jul 24, 3:51 PM)29.78 "Hg (Jul 22, 6:51 PM)
Average82 °F58%29.96 "Hg
* Reported Jul 15 11:51 AM — Jul 30 11:51 AM, Newark, Weather by CustomWeather, © 2016

Note: Actual official high and low records may vary slightly from our data, if they occured in-between our weather recording intervals... More about our weather records

Advertising

Newark Weather History for the Previous 24 Hours

Scroll right to see more
 ConditionsComfort  
Time TempWeatherWind HumidityBarometerVisibility
11:51 AM
Sat, Jul 30
84 °FBroken clouds.5 mph65%29.99 "Hg7 mi
10:51 AM83 °FBroken clouds.3 mph68%30.00 "Hg8 mi
9:51 AM80 °FBroken clouds.5 mph74%29.99 "Hg8 mi
8:51 AM79 °FBroken clouds.7 mph77%30.00 "Hg10 mi
7:51 AM77 °FPartly sunny.8 mph79%29.99 "Hg10 mi
6:51 AM76 °FPartly cloudy.5 mph77%29.97 "Hg10 mi
5:51 AM74 °FPartly cloudy.6 mph85%29.95 "Hg10 mi
4:51 AM74 °FPassing clouds.7 mph88%29.94 "Hg10 mi
3:51 AM75 °FPassing clouds.6 mph82%29.94 "Hg10 mi
2:51 AM76 °FPassing clouds.6 mph77%29.93 "Hg10 mi
1:51 AM76 °FMostly cloudy.5 mph77%29.92 "Hg10 mi
12:51 AM77 °FPassing clouds.7 mph77%29.93 "Hg10 mi
11:51 PM
Fri, Jul 29
77 °FPartly cloudy.6 mph82%29.92 "Hg10 mi
10:51 PM77 °FPassing clouds.8 mph79%29.91 "Hg10 mi
9:51 PM79 °FPassing clouds.3 mph77%29.90 "Hg10 mi
8:51 PM80 °FBroken clouds.6 mph71%29.88 "Hg10 mi
7:51 PM81 °FScattered clouds.3 mph67%29.87 "Hg10 mi
6:51 PM83 °FPassing clouds.6 mph61%29.86 "Hg10 mi
5:51 PM84 °FScattered clouds.9 mph61%29.84 "Hg10 mi
4:51 PM85 °FScattered clouds.7 mph55%29.83 "Hg10 mi
3:51 PM86 °FScattered clouds.5 mph53%29.83 "Hg10 mi
2:51 PM85 °FScattered clouds.12 mph55%29.82 "Hg10 mi
1:51 PM81 °FScattered clouds.10 mph62%29.82 "Hg10 mi
Weather by CustomWeather, © 2016

See weather overviewHow to use our weather pages